Location: ????????
(55.4000°N, 39.1167°E)
Time: 13:38:25
(UTC+00:00)

CZ-2C R/B - Pass Details

Date: 19 May 2025
Orbit: 702 x 902 km, 98.2° (Epoch: 19 June)

Event Time Altitude Azimuth Distance (km) Brightness Sun altitude
Rises 23:19:38 0° 13° (NNE) 3,514 8.2 -10.4°
Reaches altitude 10° 23:22:04 10° 10° (N) 2,583 7.0 -10.3°
Maximum altitude 23:27:43 56° 294° (WNW) 1,067 3.7 -9.9°
Enters shadow 23:33:01 12° 218° (SW) 2,446 4.9 -9.5°
